TimeIST,TemperatureF,Dew PointF,Humidity,Sea Level PressureIn,VisibilityMPH,Wind Direction,Wind SpeedMPH,Gust SpeedMPH,PrecipitationIn,Events,Conditions,WindDirDegrees,DateUTC
12:00 AM,59.0,53.6,82,30.39,6.2,SW,13.8,-,N/A,,Mostly Cloudy,220,2013-09-01 23:00:00
12:30 AM,59.0,53.6,82,30.39,6.2,SW,15.0,-,N/A,,Mostly Cloudy,220,2013-09-01 23:30:00
1:00 AM,59.0,53.6,82,30.39,6.2,SW,16.1,-,N/A,,Mostly Cloudy,220,2013-09-02 00:00:00
1:30 AM,60.8,53.6,77,30.39,6.2,SW,16.1,-,N/A,,Mostly Cloudy,220,2013-09-02 00:30:00
2:00 AM,59.0,55.4,88,30.39,6.2,SW,16.1,-,N/A,,Mostly Cloudy,230,2013-09-02 01:00:00
2:30 AM,59.0,55.4,88,30.39,6.2,WSW,13.8,-,N/A,,Mostly Cloudy,240,2013-09-02 01:30:00
3:00 AM,59.0,55.4,88,30.39,6.2,SW,13.8,-,N/A,,Mostly Cloudy,230,2013-09-02 02:00:00
3:30 AM,60.8,55.4,82,30.36,6.2,WSW,12.7,-,N/A,,Mostly Cloudy,240,2013-09-02 02:30:00
4:00 AM,60.8,55.4,82,30.36,6.2,WSW,12.7,-,N/A,,Mostly Cloudy,240,2013-09-02 03:00:00
4:30 AM,59.0,55.4,88,30.36,6.2,SW,13.8,-,N/A,,Light Drizzle,230,2013-09-02 03:30:00
5:00 AM,59.0,57.2,94,30.36,3.7,SW,9.2,-,N/A,,Light Drizzle,230,2013-09-02 04:00:00
5:30 AM,59.0,57.2,94,30.36,4.3,SW,15.0,-,N/A,,Light Drizzle,230,2013-09-02 04:30:00
6:00 AM,59.0,57.2,94,30.36,3.7,SW,12.7,-,N/A,,Mostly Cloudy,220,2013-09-02 05:00:00
6:30 AM,59.0,57.2,94,30.36,3.1,SW,13.8,-,N/A,,Light Drizzle,220,2013-09-02 05:30:00
7:00 AM,59,58,96,30.37,7,SW,13.4,,,Rain,Light Drizzle,220,2013-09-02 06:00:00
7:00 AM,59.0,59.0,100,30.36,6.2,SW,12.7,-,N/A,,Light Drizzle,220,2013-09-02 06:00:00
7:30 AM,59.0,59.0,100,30.36,3.1,SW,12.7,-,N/A,,Light Drizzle,220,2013-09-02 06:30:00
8:00 AM,59.0,59.0,100,30.36,6.2,SW,12.7,-,N/A,,Mostly Cloudy,220,2013-09-02 07:00:00
8:30 AM,60.8,59.0,94,30.36,6.2,SW,15.0,-,N/A,,Mostly Cloudy,220,2013-09-02 07:30:00
9:00 AM,60.8,59.0,94,30.36,6.2,SW,16.1,-,N/A,,Mostly Cloudy,230,2013-09-02 08:00:00
9:30 AM,60.8,59.0,94,30.36,6.2,SW,17.3,-,N/A,,Mostly Cloudy,230,2013-09-02 08:30:00
10:00 AM,62.6,59.0,88,30.36,6.2,WSW,17.3,-,N/A,,Mostly Cloudy,240,2013-09-02 09:00:00
10:30 AM,62.6,59.0,88,30.39,6.2,WSW,15.0,-,N/A,,Mostly Cloudy,240,2013-09-02 09:30:00
11:00 AM,62.6,60.8,94,30.39,6.2,WSW,16.1,-,N/A,,Mostly Cloudy,240,2013-09-02 10:00:00
11:30 AM,64.4,60.8,88,30.39,6.2,SW,17.3,-,N/A,,Mostly Cloudy,230,2013-09-02 10:30:00
12:00 PM,64.4,60.8,88,30.39,6.2,SW,15.0,-,N/A,,Mostly Cloudy,230,2013-09-02 11:00:00
12:30 PM,64.4,60.8,88,30.39,6.2,WSW,15.0,-,N/A,,Mostly Cloudy,240,2013-09-02 11:30:00
1:00 PM,66.2,60.8,83,30.39,6.2,WSW,15.0,-,N/A,,Mostly Cloudy,250,2013-09-02 12:00:00
1:30 PM,66.2,60.8,83,30.39,6.2,WSW,16.1,-,N/A,,Mostly Cloudy,240,2013-09-02 12:30:00
2:00 PM,66.2,60.8,83,30.39,6.2,WSW,16.1,-,N/A,,Mostly Cloudy,240,2013-09-02 13:00:00
2:30 PM,66.2,60.8,83,30.39,6.2,WSW,15.0,-,N/A,,Mostly Cloudy,250,2013-09-02 13:30:00
3:00 PM,66.2,60.8,83,30.39,6.2,West,12.7,-,N/A,,Mostly Cloudy,260,2013-09-02 14:00:00
3:30 PM,66.2,59.0,78,30.39,6.2,WSW,13.8,-,N/A,,Mostly Cloudy,250,2013-09-02 14:30:00
4:00 PM,66.2,59.0,78,30.39,6.2,WSW,15.0,-,N/A,,Mostly Cloudy,250,2013-09-02 15:00:00
4:30 PM,68.0,60.8,78,30.36,6.2,West,15.0,-,N/A,,Mostly Cloudy,260,2013-09-02 15:30:00
5:00 PM,66.2,59.0,78,30.36,6.2,WSW,15.0,-,N/A,,Mostly Cloudy,250,2013-09-02 16:00:00
5:30 PM,66.2,59.0,78,30.36,6.2,West,16.1,-,N/A,,Mostly Cloudy,260,2013-09-02 16:30:00
6:00 PM,64.4,59.0,83,30.36,6.2,WSW,15.0,-,N/A,,Mostly Cloudy,250,2013-09-02 17:00:00
6:30 PM,64.4,59.0,83,30.36,6.2,WSW,12.7,-,N/A,,Mostly Cloudy,240,2013-09-02 17:30:00
7:00 PM,64,58,76,30.38,19,WSW,8.9,,,,Partly Cloudy,240,2013-09-02 18:00:00
7:00 PM,64.4,59.0,83,30.36,6.2,WSW,9.2,-,N/A,,Scattered Clouds,240,2013-09-02 18:00:00
7:30 PM,64.4,57.2,77,30.36,6.2,WSW,11.5,-,N/A,,Scattered Clouds,250,2013-09-02 18:30:00
8:00 PM,62.6,57.2,82,30.36,6.2,WSW,9.2,-,N/A,,Scattered Clouds,250,2013-09-02 19:00:00
8:30 PM,60.8,57.2,88,30.36,6.2,West,8.1,-,N/A,,Scattered Clouds,280,2013-09-02 19:30:00
9:00 PM,59.0,57.2,94,30.36,6.2,NW,5.8,-,N/A,,Scattered Clouds,310,2013-09-02 20:00:00
9:30 PM,59.0,55.4,88,30.39,6.2,West,5.8,-,N/A,,Scattered Clouds,280,2013-09-02 20:30:00
10:00 PM,59.0,57.2,94,30.39,6.2,WSW,5.8,-,N/A,,Mostly Cloudy,250,2013-09-02 21:00:00
10:30 PM,57.2,55.4,94,30.39,6.2,WSW,4.6,-,N/A,,Partly Cloudy,250,2013-09-02 21:30:00
11:00 PM,57.2,55.4,94,30.39,-9999.0,WSW,5.8,-,N/A,,Clear,240,2013-09-02 22:00:00
11:30 PM,57.2,53.6,88,30.36,6.2,WSW,5.8,-,N/A,,Partly Cloudy,240,2013-09-02 22:30:00